South St. Paul, MN

8:17 AM CDT on April 27, 2017 (GMT -0500)
South Saint Paul Municipal-Fleming

Weather History for KSGS - February, 2013

Change the Weather History Date:

Tuesday, February 12, 2013

  Actual Average (KSTP) Record (KSTP)
Temperature  
Mean Temperature 26 °F -  
Max Temperature 36 °F 28 °F 51 °F (2005)
Min Temperature 17 °F 13 °F -5 °F (2003)
Degree Days  
Heating Degree Days 38    
Moisture  
Dew Point 19 °F    
Average Humidity 74    
Maximum Humidity 85    
Minimum Humidity 57    
Precipitation  
Precipitation 0.00 in - - ()
Sea Level Pressure  
Sea Level Pressure 29.91 in    
Wind  
Wind Speed 6 mph (SW)    
Max Wind Speed 13 mph    
Max Gust Speed 18 mph    
Visibility 10 miles    
Events      
Averages and records for this station are not official NWS values.
T = Trace of Precipitation, MM = Missing Value Source: NWS Daily Summary

Daily Weather History Graph

Daily Weather History Graph

Search for Another Location

Airport or City:

Trip Planner

Search our weather history database for the weather conditions in past years. The results will help you decide how hot, cold, wet, or windy it might be!

Date:

Astronomy

Feb. 12, 2013 Rise Set
Actual Time 7:16 AM CST 5:36 PM CST
Civil Twilight 6:46 AM CST 6:06 PM CST
Nautical Twilight 6:12 AM CST 6:41 PM CST
Astronomical Twilight 5:38 AM CST 7:15 PM CST
Moon 8:05 AM CST (2/12) 8:48 PM CST (2/12)
Length of Visible Light 11h 20m
Length of Day
10h 19m
Waxing Crescent, 7% of the Moon is Illuminated
Feb 12
Waxing Crescent
Feb 17
First Quarter
Feb 25
Full
Mar 4
Last Quarter
Mar 11
New

Hourly Weather History & Observations

Time (CST) Temp. Windchill Dew Point Humidity Pressure Visibility Wind Dir Wind Speed Gust Speed Precip Events Conditions
12:12 AM 21.2 °F 12.6 °F 14.9 °F 77% 30.03 in 10.0 mi West 6.9 mph - N/A   Scattered Clouds
12:32 AM 20.1 °F 11.3 °F 14.2 °F 78% 30.03 in 10.0 mi West 6.9 mph - N/A   Clear
12:52 AM 19.2 °F 12.5 °F 13.8 °F 80% 30.03 in 10.0 mi West 4.6 mph - N/A   Clear
1:12 AM 18.5 °F 9.3 °F 13.1 °F 79% 30.03 in 10.0 mi West 6.9 mph - N/A   Clear
1:32 AM 18.1 °F 8.9 °F 12.7 °F 79% 30.03 in 10.0 mi WSW 6.9 mph - N/A   Clear
1:52 AM 17.6 °F 9.3 °F 12.4 °F 80% 30.03 in 10.0 mi WSW 5.8 mph - N/A   Clear
2:12 AM 17.6 °F 8.2 °F 12.7 °F 81% 30.04 in 10.0 mi West 6.9 mph - N/A   Clear
2:32 AM 17.2 °F 10.2 °F 12.6 °F 82% 30.04 in 10.0 mi WSW 4.6 mph - N/A   Clear
2:52 AM 17.6 °F 9.3 °F 13.1 °F 83% 30.03 in 10.0 mi West 5.8 mph - N/A   Mostly Cloudy
3:12 AM 18.3 °F 9.1 °F 14.0 °F 83% 30.03 in 10.0 mi WSW 6.9 mph - N/A   Overcast
3:32 AM 18.5 °F 10.4 °F 14.0 °F 83% 30.03 in 10.0 mi WSW 5.8 mph - N/A   Overcast
3:52 AM 18.9 °F 12.1 °F 14.5 °F 83% 30.02 in 10.0 mi WSW 4.6 mph - N/A   Overcast
4:12 AM 19.2 °F 12.5 °F 14.7 °F 83% 30.02 in 10.0 mi WSW 4.6 mph - N/A   Overcast
4:32 AM 19.4 °F 14.3 °F 14.9 °F 83% 30.02 in 10.0 mi SW 3.5 mph - N/A   Overcast
4:52 AM 19.8 °F - 14.9 °F 81% 30.02 in 10.0 mi Calm Calm - N/A   Overcast
5:12 AM 19.8 °F - 14.9 °F 81% 30.01 in 10.0 mi Calm Calm - N/A   Overcast
5:32 AM 19.9 °F 13.4 °F 15.3 °F 82% 30.01 in 10.0 mi South 4.6 mph - N/A   Overcast
5:52 AM 20.1 °F 15.2 °F 15.3 °F 81% 29.99 in 10.0 mi South 3.5 mph - N/A   Overcast
6:12 AM 20.1 °F - 15.3 °F 81% 29.99 in 10.0 mi Calm Calm - N/A   Overcast
6:32 AM 20.3 °F 13.8 °F 15.4 °F 81% 29.99 in 10.0 mi South 4.6 mph - N/A   Overcast
6:52 AM 20.1 °F 13.6 °F 15.4 °F 82% 29.99 in 10.0 mi South 4.6 mph - N/A   Overcast
7:12 AM 19.0 °F 13.9 °F 14.5 °F 83% 29.98 in 10.0 mi South 3.5 mph - N/A   Scattered Clouds
7:32 AM 18.5 °F 13.3 °F 14.5 °F 85% 29.98 in 10.0 mi South 3.5 mph - N/A   Clear
7:52 AM 18.9 °F 13.7 °F 14.7 °F 84% 29.98 in 10.0 mi South 3.5 mph - N/A   Clear
8:12 AM 19.2 °F 14.1 °F 14.9 °F 83% 29.97 in 10.0 mi South 3.5 mph - N/A   Clear
8:32 AM 21.0 °F 13.4 °F 16.0 °F 81% 29.97 in 10.0 mi SSE 5.8 mph - N/A   Clear
8:52 AM 22.1 °F 14.7 °F 16.5 °F 79% 29.96 in 10.0 mi SSE 5.8 mph - N/A   Clear
9:12 AM 23.0 °F 13.1 °F 17.4 °F 79% 29.96 in 10.0 mi South 9.2 mph - N/A   Clear
9:32 AM 23.5 °F 13.0 °F 17.4 °F 77% 29.95 in 10.0 mi South 10.4 mph 18.4 mph N/A   Clear
9:52 AM 24.3 °F 14.6 °F 18.0 °F 77% 29.95 in 10.0 mi SSW 9.2 mph - N/A   Clear
10:12 AM 25.2 °F 14.4 °F 18.5 °F 76% 29.95 in 10.0 mi SSW 11.5 mph 17.3 mph N/A   Clear
10:32 AM 25.7 °F 17.1 °F 19.0 °F 76% 29.93 in 10.0 mi South 8.1 mph 17.3 mph N/A   Scattered Clouds
10:52 AM 27.1 °F 16.9 °F 19.9 °F 74% 29.92 in 10.0 mi South 11.5 mph 17.3 mph N/A   Scattered Clouds
11:12 AM 28.2 °F 19.5 °F 20.3 °F 72% 29.91 in 10.0 mi South 9.2 mph - N/A   Scattered Clouds
11:32 AM 28.9 °F 21.9 °F 20.8 °F 72% 29.91 in 10.0 mi SSW 6.9 mph - N/A   Mostly Cloudy
11:52 AM 29.8 °F 22.2 °F 21.4 °F 71% 29.90 in 10.0 mi SSW 8.1 mph - N/A   Scattered Clouds
12:12 PM 30.9 °F 24.3 °F 21.9 °F 69% 29.89 in 10.0 mi SSW 6.9 mph - N/A   Clear
12:32 PM 32.0 °F 25.6 °F 22.8 °F 69% 29.88 in 10.0 mi SSW 6.9 mph - N/A   Clear
12:52 PM 32.9 °F 28.5 °F 23.0 °F 67% 29.87 in 10.0 mi South 4.6 mph - N/A   Clear
1:12 PM 33.3 °F 25.7 °F 23.4 °F 67% 29.87 in 10.0 mi SSW 9.2 mph - N/A   Clear
1:32 PM 34.2 °F 26.8 °F 23.2 °F 64% 29.86 in 10.0 mi SSW 9.2 mph - N/A   Clear
1:52 PM 34.7 °F 29.6 °F 23.2 °F 63% 29.85 in 10.0 mi SSW 5.8 mph - N/A   Clear
2:12 PM 35.6 °F 28.6 °F 22.1 °F 58% 29.84 in 10.0 mi WSW 9.2 mph - N/A   Clear
2:32 PM 35.6 °F 28.0 °F 22.3 °F 58% 29.83 in 10.0 mi SW 10.4 mph - N/A   Clear
2:52 PM 36.0 °F 28.5 °F 22.6 °F 58% 29.83 in 10.0 mi SSW 10.4 mph - N/A   Clear
3:12 PM 36.3 °F 28.0 °F 22.5 °F 57% 29.83 in 10.0 mi SW 12.7 mph - N/A   Clear
3:32 PM 36.5 °F 28.7 °F 22.6 °F 57% 29.83 in 10.0 mi WSW 11.5 mph - N/A   Clear
3:52 PM 36.5 °F 29.2 °F 23.0 °F 58% 29.83 in 10.0 mi WSW 10.4 mph - N/A   Clear
4:12 PM 36.5 °F 30.3 °F 23.5 °F 59% 29.84 in 10.0 mi West 8.1 mph - N/A   Clear
4:32 PM 36.1 °F 29.3 °F 23.4 °F 60% 29.83 in 10.0 mi West 9.2 mph - N/A   Clear
4:52 PM 35.6 °F 29.2 °F 23.0 °F 60% 29.84 in 10.0 mi West 8.1 mph - N/A   Clear
5:12 PM 34.9 °F 27.1 °F 23.2 °F 62% 29.84 in 10.0 mi West 10.4 mph - N/A   Clear
5:32 PM 33.3 °F 26.4 °F 23.0 °F 66% 29.85 in 10.0 mi West 8.1 mph - N/A   Clear
5:52 PM 32.2 °F 25.0 °F 23.0 °F 69% 29.84 in 10.0 mi West 8.1 mph - N/A   Clear
6:12 PM 32.0 °F 25.6 °F 23.0 °F 69% 29.84 in 10.0 mi WSW 6.9 mph - N/A   Clear
6:32 PM 31.1 °F 25.4 °F 22.1 °F 69% 29.84 in 10.0 mi WSW 5.8 mph - N/A   Clear
6:52 PM 30.7 °F 26.0 °F 21.9 °F 70% 29.84 in 10.0 mi WSW 4.6 mph - N/A   Clear
7:12 PM 30.0 °F 25.2 °F 21.6 °F 71% 29.84 in 10.0 mi WSW 4.6 mph - N/A   Clear
7:32 PM 29.7 °F 24.7 °F 21.4 °F 71% 29.84 in 10.0 mi WSW 4.6 mph - N/A   Clear
7:52 PM 28.9 °F 22.8 °F 21.0 °F 72% 29.83 in 10.0 mi WSW 5.8 mph - N/A   Clear
8:12 PM 28.4 °F 23.3 °F 20.8 °F 73% 29.83 in 10.0 mi SW 4.6 mph - N/A   Clear
8:32 PM 28.4 °F 23.3 °F 20.8 °F 73% 29.83 in 10.0 mi West 4.6 mph - N/A   Clear
8:52 PM 28.4 °F 21.2 °F 21.2 °F 74% 29.83 in 10.0 mi West 6.9 mph - N/A   Clear
9:12 PM 28.2 °F 21.0 °F 21.0 °F 74% 29.83 in 10.0 mi West 6.9 mph - N/A   Clear
9:32 PM 28.0 °F 22.8 °F 20.8 °F 74% 29.83 in 10.0 mi West 4.6 mph - N/A   Clear
9:52 PM 27.5 °F 22.2 °F 20.3 °F 74% 29.82 in 10.0 mi West 4.6 mph - N/A   Clear
10:12 PM 27.3 °F 23.4 °F 20.1 °F 74% 29.82 in 10.0 mi West 3.5 mph - N/A   Clear
10:32 PM 26.6 °F 22.6 °F 19.9 °F 76% 29.82 in 10.0 mi WSW 3.5 mph - N/A   Clear
10:52 PM 25.7 °F 21.5 °F 19.6 °F 78% 29.82 in 10.0 mi WSW 3.5 mph - N/A   Clear
11:12 PM 25.3 °F - 19.4 °F 78% 29.82 in 10.0 mi Calm Calm - N/A   Clear
11:32 PM 25.0 °F - 19.4 °F 79% 29.80 in 10.0 mi Calm Calm - N/A   Clear
11:52 PM 24.4 °F - 19.4 °F 81% 29.80 in 10.0 mi Calm Calm - N/A   Clear